Theta_e
347 347 347 348 349 349 348 347 348 349 349 348 348 349 347 345 347 348 348 360 359 359 360 360 359 357 357 358 358 356 354 356 357 357 356 353 353 354 353 352 349 349 350
348 347 347 346 347 348 348 345 345 346 348 348 348 349 350 350 351 350 350 353 360 360 360 364 364 361 360 359 359 359 358 355 357 358 359 357 356 357 355 355 352 351 354
347 348 346 346 347 348 349 347 347 346 345 346 347 346 348 348 347 349 349 350 355 361 360 361 363 361 363 363 362 360 360 359 358 359 359 357 357 357 357 357 356 355 354
348 347 346 344 346 347 347 344 344 346 344 343 343 344 346 347 347 348 348 349 350 354 357 360 359 359 361 364 364 363 360 359 358 358 358 359 358 356 356 356 357 357 356
350 347 343 344 346 344 345 345 341 341 340 341 343 343 343 345 347 347 348 346 350 350 348 356 358 357 360 360 359 359 360 359 358 358 358 358 358 357 356 355 355 355 355
348 347 345 345 343 343 342 343 341 342 340 340 344 343 339 341 343 344 346 347 349 352 350 348 349 352 357 361 359 359 358 358 358 359 358 357 356 356 356 354 354 353 352
347 348 344 344 343 339 339 340 340 339 339 339 335 334 336 340 340 340 342 343 344 348 347 348 347 347 348 355 356 356 356 353 355 357 358 356 355 355 353 353 353 352 350
347 345 346 344 343 340 337 337 340 337 337 338 332 331 327 330 335 341 339 344 342 344 347 347 345 348 347 349 348 350 354 354 356 355 357 355 354 353 353 352 352 350 350
348 346 346 345 344 343 340 339 339 337 335 335 339 332 325 322 326 334 331 337 341 341 342 345 348 348 348 347 351 352 355 355 356 354 355 355 352 350 351 351 350 350 349
347 346 346 345 344 345 340 341 342 339 336 331 335 338 334 330 324 323 332 329 339 339 339 340 342 345 346 346 348 351 351 350 351 354 356 357 354 351 350 350 349 349 348
344 345 344 344 344 344 342 341 340 337 337 335 334 333 334 334 332 329 325 326 333 332 333 335 336 342 345 345 342 346 349 348 349 352 353 354 353 351 350 349 348 347 347
341 343 342 342 344 344 343 342 341 340 339 339 338 336 336 332 331 330 328 328 329 332 332 334 335 342 342 343 347 349 350 349 347 348 349 350 351 350 349 349 348 347 348
339 340 340 338 339 341 341 340 339 340 339 336 337 339 339 337 337 335 332 330 329 331 331 332 334 339 341 338 341 346 347 345 343 342 344 345 347 348 349 348 347 348 348
338 341 341 339 337 336 336 338 336 338 341 339 338 338 338 338 338 336 333 329 328 328 330 329 331 337 338 338 342 342 340 342 340 338 338 339 341 343 344 345 346 346 347
341 342 342 339 338 338 338 340 338 337 337 337 339 340 339 340 341 340 337 334 329 324 324 328 329 335 337 336 336 334 335 339 339 337 335 335 336 338 339 341 341 340 341
339 341 342 342 342 342 342 340 337 337 336 334 335 334 334 339 340 340 339 338 337 330 324 328 329 332 336 336 337 331 333 335 336 335 334 333 333 334 335 335 336 336 335
339 339 339 340 341 340 340 338 337 337 336 335 336 337 336 337 339 339 340 337 337 333 326 327 329 332 332 332 331 329 329 328 331 334 333 332 331 331 332 332 333 333 333
338 337 337 339 339 339 338 336 335 338 335 334 335 336 335 338 335 335 336 335 336 335 328 324 327 327 328 331 327 325 326 327 327 332 331 330 329 328 327 327 327 327 326
337 338 337 336 336 338 337 337 337 333 333 335 333 332 334 334 333 333 334 333 333 334 329 326 324 325 327 331 326 326 321 319 325 331 330 329 327 326 325 324 323 320 318
337 337 336 336 335 336 336 335 335 330 330 332 333 331 334 334 333 333 333 333 332 330 328 327 325 324 325 327 328 324 320 320 318 324 327 326 326 327 325 324 323 321 317
339 338 338 339 339 339 334 337 334 328 328 328 331 335 333 333 333 331 332 333 331 328 326 324 323 322 322 324 324 323 320 317 315 317 316 320 319 320 319 323 324 324 318
338 338 339 339 333 334 325 328 331 330 329 330 328 330 329 333 330 330 331 333 331 327 324 322 321 322 323 324 324 323 320 316 314 317 314 314 315 315 314 314 321 321 317
336 335 334 334 333 331 322 322 326 326 327 327 330 329 328 330 328 328 327 329 329 328 328 326 323 323 322 324 325 323 321 319 316 318 316 314 315 313 316 316 318 319 316
336 334 334 335 333 331 319 318 322 320 324 330 329 330 331 328 326 327 326 326 328 331 329 329 325 322 322 326 327 327 324 323 322 320 320 314 315 314 314 316 319 319 316
335 336 336 335 333 329 316 316 320 320 321 327 330 331 330 328 324 322 328 324 322 322 321 324 324 321 320 320 324 324 322 321 319 319 320 316 313 313 312 311 313 319 315
324 338 337 336 330 328 313 313 319 320 318 321 323 325 324 322 317 319 327 323 320 322 323 322 322 322 320 319 321 324 322 321 320 317 321 318 317 315 312 311 310 314 314
Wind_Speed
4 4 4 3 3 3 4 4 4 4 5 5 5 6 5 5 6 3 3 16 15 14 16 18 17 16 15 15 15 15 15 15 14 14 13 12 11 11 12 11 11 10 10
4 4 4 5 4 5 4 4 5 5 5 5 5 6 6 4 5 4 4 8 19 17 17 18 18 17 17 17 16 17 16 16 15 14 14 12 12 12 13 14 13 13 11
6 6 5 5 5 4 5 4 4 3 3 4 5 5 4 5 4 6 7 6 6 16 16 18 17 16 17 17 16 16 16 16 15 15 15 14 13 12 12 12 14 13 11
7 6 4 4 4 4 5 4 4 4 4 4 3 4 4 4 6 6 5 5 6 7 12 18 15 15 16 17 16 15 16 15 15 15 14 15 15 15 14 13 14 14 12
7 5 4 4 4 3 4 3 3 4 3 3 4 4 3 5 5 3 5 6 5 4 4 7 15 12 14 15 14 14 15 15 16 16 15 15 16 16 15 15 16 15 12
6 5 4 5 5 3 2 3 4 3 3 3 2 2 3 4 4 3 3 2 1 4 4 6 4 5 8 14 14 12 13 13 12 15 16 15 15 16 15 15 16 15 12
7 6 4 4 4 4 4 4 4 5 3 2 1 1 3 4 5 3 2 3 3 3 4 3 2 2 3 11 14 14 17 14 14 15 15 15 15 16 15 15 16 15 13
6 5 6 6 5 3 5 5 4 2 3 4 3 1 2 4 2 3 2 0 1 1 2 2 4 3 4 5 8 14 19 17 17 16 12 12 14 14 13 14 13 14 14
6 6 7 5 3 4 5 5 4 5 4 2 4 4 2 4 1 1 3 2 3 3 2 2 4 3 7 5 10 12 17 14 15 15 14 11 13 12 12 11 11 11 10
5 5 7 8 8 5 5 5 4 3 3 4 2 3 2 4 4 1 1 1 1 3 3 2 3 3 4 3 4 7 8 6 8 13 15 13 12 11 10 6 4 5 6
5 5 6 6 9 5 4 5 4 5 4 3 4 2 3 1 2 2 2 3 1 1 2 2 2 3 3 3 2 4 6 5 7 8 8 11 10 9 9 8 7 7 8
4 5 5 6 7 6 6 6 6 6 5 5 4 4 4 4 3 3 3 3 3 1 0 2 2 2 0 2 3 5 6 6 6 7 7 9 10 11 10 8 7 8 10
3 6 6 5 4 5 6 5 5 5 5 4 5 3 4 4 3 3 3 2 2 2 1 1 2 2 2 3 2 6 8 9 9 9 9 9 9 9 9 8 7 9 12
4 5 5 5 5 5 5 5 3 4 5 4 6 5 4 4 4 4 4 4 2 1 2 2 1 1 3 3 6 9 5 10 11 10 9 9 8 8 7 7 7 8 13
3 5 5 5 6 6 6 5 4 5 4 4 4 4 3 4 4 4 4 4 5 4 4 3 2 2 3 3 5 4 4 9 10 9 8 9 8 9 8 7 9 11 14
3 5 5 5 5 5 5 5 4 5 5 4 4 5 4 3 4 4 5 5 6 4 3 2 2 3 3 3 6 5 4 6 8 8 8 9 8 9 10 11 13 15 16
6 6 6 6 7 6 6 6 6 5 6 6 5 6 6 4 3 4 3 2 4 4 4 2 2 3 3 6 4 4 3 3 4 7 8 8 8 8 10 11 12 14 14
5 7 6 6 7 6 6 6 5 4 5 6 6 5 6 3 4 3 3 4 4 5 4 6 3 2 2 6 5 5 4 3 3 7 7 7 8 7 7 8 9 9 11
5 4 5 6 5 6 6 6 6 6 5 6 6 6 6 5 3 3 4 3 2 3 3 5 4 2 2 5 4 3 3 3 2 8 8 8 8 7 7 7 8 8 8
7 5 4 5 6 5 5 5 6 5 4 4 3 4 5 5 5 4 2 4 6 6 5 6 3 4 3 3 5 4 4 1 1 1 4 5 7 8 7 8 8 8 8
7 7 7 5 4 4 3 4 4 5 4 3 1 4 4 4 5 4 3 6 7 5 5 4 4 2 3 4 6 4 3 3 2 2 1 1 1 1 3 6 8 10 8
6 6 7 6 6 4 5 3 4 3 3 3 5 3 3 5 4 3 3 10 8 9 6 5 3 5 5 4 3 6 4 4 3 4 4 3 3 3 3 3 8 9 9
7 6 6 5 7 6 8 6 5 2 2 2 4 5 4 2 5 4 5 8 8 7 7 7 8 7 6 8 7 7 6 4 4 4 4 3 4 4 4 4 11 11 11
9 7 7 7 6 6 10 11 9 4 2 2 1 5 6 5 4 5 5 4 4 5 6 4 6 6 6 9 11 9 7 4 2 3 6 3 4 5 4 6 14 16 14
7 6 5 7 7 7 11 11 9 4 3 3 3 3 5 5 7 7 4 5 3 1 2 3 6 8 10 11 8 6 6 6 3 3 6 3 4 3 4 4 6 17 15
15 10 7 8 9 7 11 11 9 4 4 2 1 0 3 5 8 9 6 5 5 5 5 3 2 3 4 5 9 6 5 7 4 2 4 5 4 4 2 4 4 5 7
Wind_Direction
201 185 190 186 196 179 193 217 202 203 211 226 239 236 227 213 238 203 177 188 199 197 200 198 205 210 208 204 204 207 211 212 216 220 216 214 212 221 225 220 220 220 229
191 193 190 196 200 196 196 202 203 199 222 212 240 225 246 225 233 194 182 190 201 206 204 204 204 210 212 212 211 212 214 216 216 219 222 217 218 224 232 224 219 222 227
194 195 204 197 205 206 196 198 208 212 209 219 233 232 238 237 221 203 194 201 207 211 211 214 210 212 213 219 217 216 215 217 219 217 223 221 220 224 230 231 218 229 229
193 200 176 204 206 186 181 187 189 205 211 203 219 232 246 250 227 213 206 196 207 202 218 219 222 217 216 218 220 219 220 218 219 219 221 221 224 226 224 226 224 226 226
200 193 185 194 163 144 176 173 199 172 187 217 241 252 258 257 244 223 217 209 207 200 205 231 228 226 233 235 226 223 226 224 223 222 223 227 229 231 229 226 227 227 223
219 208 171 182 189 185 154 160 175 187 187 195 243 317 308 293 282 262 242 160 219 223 157 202 204 190 241 239 226 231 236 236 240 232 226 226 229 232 230 227 227 223 221
205 212 187 176 169 189 179 215 177 184 207 140 138 299 270 267 264 320 4 261 228 178 152 201 196 222 253 254 245 229 238 236 249 245 233 226 225 231 233 232 232 226 210
220 200 185 173 173 159 198 204 199 151 193 178 160 122 321 324 30 44 8 22 331 201 124 250 277 246 247 244 251 258 268 250 254 244 252 238 231 231 232 234 234 227 215
219 206 193 166 164 223 197 199 181 175 175 188 202 149 123 229 355 356 37 350 78 89 88 99 64 296 238 234 249 258 265 257 243 240 267 237 228 234 236 237 244 236 217
242 213 196 183 179 218 202 186 170 174 149 200 234 220 149 156 182 272 201 326 27 93 100 62 20 293 276 245 259 274 275 276 262 256 247 237 221 226 226 216 214 194 180
213 213 181 170 180 191 196 191 183 185 193 186 189 166 185 157 123 144 251 247 255 354 6 70 15 300 34 93 332 326 292 269 262 244 223 211 208 173 160 161 168 172 176
205 184 159 178 184 180 191 192 200 203 202 204 200 202 189 167 181 152 199 206 191 183 61 350 30 315 264 75 56 48 55 70 77 81 100 126 138 145 143 165 167 188 179
206 198 171 167 171 184 189 186 192 205 195 189 193 194 201 196 148 182 176 172 157 171 164 334 313 307 118 84 76 70 75 75 72 80 89 103 116 124 139 151 167 184 173
206 186 181 180 181 187 192 190 190 209 201 198 203 201 179 198 184 187 173 146 162 157 175 186 255 358 114 123 104 83 74 89 84 84 82 89 103 124 137 155 169 155 143
221 195 176 191 194 193 198 192 195 209 196 200 215 217 195 198 194 201 190 168 155 179 200 201 176 178 145 116 119 84 80 95 98 96 99 94 99 110 121 129 124 125 123
214 183 183 196 199 213 206 200 202 192 185 207 201 208 213 202 204 203 203 183 191 167 159 155 203 166 160 132 129 105 97 104 111 110 108 103 105 102 102 107 114 117 116
182 189 203 198 196 208 204 189 208 208 200 207 218 226 242 245 230 217 203 174 182 158 135 141 146 174 146 140 120 103 115 91 97 117 120 120 114 108 105 107 114 120 126
181 175 182 182 190 202 193 199 210 217 222 227 227 226 233 219 234 223 209 214 192 172 132 154 146 144 140 152 143 133 133 92 102 122 121 128 135 125 112 111 115 123 131
182 190 183 192 196 200 200 212 201 195 210 213 227 205 192 180 193 200 194 205 197 162 146 150 139 136 130 155 139 137 125 113 120 139 133 135 139 133 125 127 132 135 133
175 195 207 203 210 204 211 216 207 200 181 200 194 215 160 154 184 187 186 130 124 130 130 139 139 153 134 150 152 148 134 120 144 135 139 148 152 156 156 151 151 153 158
195 194 194 208 229 204 202 195 218 195 202 227 195 169 167 173 179 191 161 157 145 128 128 123 131 119 157 159 178 146 142 134 198 155 136 165 134 128 195 183 185 181 174
202 199 195 180 171 175 177 155 177 182 168 202 194 219 151 147 150 128 165 163 160 145 144 139 151 178 191 164 144 165 136 157 197 178 154 205 155 208 211 200 213 195 186
172 209 217 177 175 173 174 149 141 193 209 207 202 177 187 198 164 145 99 131 147 148 166 156 165 180 175 188 167 176 183 168 180 160 135 176 172 217 204 216 216 209 201
181 178 197 208 175 186 174 157 153 172 235 289 265 181 186 177 207 173 154 141 158 167 170 178 178 171 179 181 188 188 174 154 117 146 171 184 165 214 190 212 206 209 203
290 185 182 192 189 182 173 164 147 163 217 225 303 165 168 178 199 187 183 163 158 226 34 203 180 179 179 179 170 140 164 167 187 186 188 158 193 185 185 210 211 208 197
295 254 194 197 191 185 173 170 150 139 208 217 205 180 151 174 187 185 180 168 174 204 163 130 80 76 165 179 183 193 167 189 174 173 193 192 153 150 240 206 190 189 195